Starlink 11455

operational
NORAD ID: 62463 Int'l Des: 2024-254 Owner: SPXS Country: US Constellation: starlink
LEOCIRCULAR

关于 Starlink 11455

正在加载描述...

实时位置

正在加载3D地球...

即将过境

高度历史

Altitude vs Time

uPlot chart will show altitude changes over time

两行轨道根数

1 62463U 24254B 25301.29435188 .00399823 00000-0 29332-2 0 9994
2 62463 42.9992 301.4883 0001731 222.2651 137.8084 15.71153164 48576
Epoch: Oct 28, 2025 • Age: 14 hours

当前状态

高度 357.8 km
速度 7.70 km/s
星下点 41.94°N, 48.69°E
发射日期 Dec 31, 2024
运行时间 0.8 years
类型 internet

技术详情

分类 Payload
质量 960.00 kg
干质量 910.00 kg
总质量 960.00 kg
长度 0.30 m
直径 4.10 m
跨度 29.00 m
形状 Box + pan
制造商 SPXS
平台类型 Starlink V2MD
阶段状态 In Orbit
所有者/国家 SPXS/US

大型星座

Loading constellations...